Regional Weather Roundup
Issued by NWS Burlington, VT

Home | Current Version | Previous Version | Text Only | Print | Product List | Glossary On
Versions: 1 2 3 4 5 6 7 8 9 10 11 12 13 14 15 16 17 18 19 20 21 22 23 24 25 26 27 28 29 30 31 32 33 34 35 36 37 38 39 40 41 42 43 44 45 46 47 48 49 50
532
ASUS41 KBTV 291130
RWRBTV
VERMONT REGIONAL WEATHER ROUNDUP
NATIONAL WEATHER SERVICE BURLINGTON VT
700 AM EDT SUN MAY 29 2016

NOTE: "FAIR" INDICATES FEW OR NO CLOUDS BELOW 12,000 FEET WITH NO
SIGNIFICANT WEATHER AND/OR OBSTRUCTIONS TO VISIBILITY.

* THESE REPORTS ARE NOT UNDER NWS QUALITY CONTROL AND/OR DO NOT
  REPORT WEATHER SUCH AS PRECIPITATION AND FOG.

VTZ001>019-291200-
_____VERMONT_____


CITY           SKY/WX    TMP DP  RH WIND       PRES   REMARKS
BURLINGTON     PTSUNNY   69  61  75 E3        30.09F
MONTPELIER     PTSUNNY   68  62  81 S8        30.20S
MORRISVILLE    FAIR      63  60  90 CALM      30.14S
ST. JOHNSBURY*   N/A     63  58  83 MISG      30.15R
LYNDONVILLE*   FAIR      64  60  86 E5        30.19R
RUTLAND*       FAIR      71  64  78 SE10      30.13S
SPRINGFIELD    CLOUDY    64  61  90 CALM      30.18R
HIGHGATE*      FAIR      64  59  85 CALM      30.10R
NEWPORT*       FAIR      65  61  88 CALM      30.15R
BENNINGTON     FAIR      68  63  84 CALM      30.13R HAZE
GALLUP MILLS*    N/A     63 N/A N/A MISG        N/A
UNION VILLAGE*   N/A     64 N/A N/A MISG        N/A
MT. MANSFIELD*   N/A     66 N/A N/A W14         N/A

_____LAKE CHAMPLAIN_____


CITY           SKY/WX    TMP DP  RH WIND       PRES   REMARKS
BURTON ISLAND*   N/A     64  61  88 W2          N/A
COLCHESTER RF*   N/A     66  63  88 NW6         N/A
DIAMOND ISL*     N/A     66  64  94 S2          N/A

$$

NYZ007-026>031-035-052-083-087-291200-
_____NORTHERN NEW YORK_____


CITY           SKY/WX    TMP DP  RH WIND       PRES   REMARKS
PLATTSBURGH    MOSUNNY   65  60  84 CALM      30.09S
SARANAC LAKE   PTSUNNY   59  56  89 CALM      30.13S FOG
MASSENA        MOSUNNY   64  55  72 NE9       30.09S
OGDENSBURG*    SUNNY     66  64  94 CALM      30.07S
STARK FALLS*     N/A     32 N/A N/A SE7         N/A  WCI  26
WATERTOWN      CLOUDY    68  64  87 CALM      30.06R
ALBANY         CLOUDY    71  66  84 S5        30.11R
GLENS FALLS    SUNNY     68  64  87 CALM      30.11S

$$
NHZ002-005-011-291200-
_____NEW HAMPSHIRE_____


CITY           SKY/WX    TMP DP  RH WIND       PRES   REMARKS
LEBANON        CLOUDY    69  62  78 SE5       30.17R
MT WASHINGTON  MOSUNNY   55  54  94 SW20        N/A
PLYMOUTH       CLOUDY    66  60  80 E3        30.21R
WHITEFIELD     SUNNY     70  61  73 NW3       30.16S

$$

_____REGIONAL QUEBEC LOCATIONS_____


CITY           SKY/WX    TMP DP  RH WIND       PRES   REMARKS
MONTREAL       CLOUDY    61  54  77 NE9       30.10S
QUEBEC CITY    LGT RAIN  54  52  94 E6        30.19F
SHERBROOKE     PTSUNNY   63  57  82 NE6       30.12S

_____REGIONAL ONTARIO LOCATIONS_____


CITY           SKY/WX    TMP DP  RH WIND       PRES   REMARKS
OTTAWA         PTSUNNY   64  55  72 E9        30.07S

______KEY______
VSB  - VISIBILITY IN MILES
WCI  - WIND CHILL INDEX
HX   - HEAT INDEX
$$
NNNN




USA.gov is the U.S. government's official web portal to all federal, state and local government web resources and services.